Location: Dompnac
(44.5644°N, 4.1026°E)
Time: 11:38:22
(UTC+00:00)

Okean 1 Rocket - Pass Details

Date: 19 September 2020
Orbit: 605 x 635 km, 82.5° (Epoch: 29 October)

Event Time Altitude Azimuth Distance (km) Brightness Sun altitude
Exits shadow 20:08:17 77° 242° (WSW) 657 3.1 -25.1°
Maximum altitude 20:08:28 80° 278° (W) 651 3.1 -25.1°
Drops below altitude 10° 20:13:00 10° 6° (N) 2,033 6.0 -25.8°
Sets 20:15:15 0° 8° (N) 2,946 6.8 -26.1°
